Location: Leeds
(37.2390°N, 113.3580°W)
Time: 13:16:56
(UTC-06:00)

SL-08 RB Rocket - Visible Passes

Search period start: 23 July 2016 00:00
Search period end: 02 August 2016 00:00
Orbit: 649 x 685 km, 98.0° (Epoch: 22 July)

Date Brightness Start Highest point End Pass type
(mag) Time Alt. Az. Time Alt. Az. Time Alt. Az.
23 Jul 5.7 00:09:05 19° W 00:09:23 19° W 00:12:39 10° NW visible
23 Jul 3.6 23:03:06 61° SSE 23:03:52 82° ENE 23:08:30 10° N visible
24 Jul 5.5 21:57:06 14° E 21:58:59 17° ENE 22:01:56 10° NNE visible
24 Jul 4.5 23:35:15 42° WSW 23:35:38 44° W 23:40:03 10° NNW visible
25 Jul 4.5 22:29:16 30° ESE 22:30:27 35° ENE 22:34:39 10° N visible
26 Jul 5.7 00:07:24 20° W 00:07:33 20° W 00:10:56 10° NW visible
26 Jul 3.6 23:01:25 64° SE 23:02:03 79° ENE 23:06:42 10° N visible
27 Jul 5.5 21:55:26 13° E 21:57:13 16° ENE 22:00:03 10° NNE visible
27 Jul 4.4 23:33:35 45° WSW 23:33:49 46° W 23:38:17 10° NNW visible
28 Jul 4.6 22:27:36 30° E 22:28:39 34° ENE 22:32:49 10° N visible
29 Jul 5.7 00:05:44 21° W 00:05:44 21° W 00:09:13 10° NW visible
29 Jul 3.6 22:59:46 67° SE 23:00:15 75° ENE 23:04:54 10° N visible
30 Jul 5.6 21:53:47 13° E 21:55:25 16° ENE 21:58:10 10° NNE visible
30 Jul 4.4 23:31:55 48° WSW 23:32:00 48° W 23:36:30 10° NNW visible
31 Jul 4.6 22:25:57 30° E 22:26:51 32° ENE 22:30:59 10° N visible
01 Aug 5.7 00:04:05 22° W 00:04:05 22° W 00:07:30 10° NW visible
01 Aug 3.6 22:58:07 68° ESE 22:58:26 72° ENE 23:03:06 10° N visible
